Location: Colebrook
(42.0017°N, 73.0973°W)
Time: 04:40:11
(UTC-04:00)

SR - All Passes

Search period start: 21 October 2021 00:00
Search period end: 31 October 2021 00:00
Orbit: 582 x 872 km, 66.7° (Epoch: 20 October)

Date Brightness Start Highest point End Pass type
(mag) Time Alt. Az. Time Alt. Az. Time Alt. Az.
21 Oct - 09:57:13 10° SSE 10:01:33 28° ESE 10:05:36 10° NE daylight
21 Oct - 11:38:45 10° WSW 11:43:27 38° NW 11:47:49 10° NNE daylight
21 Oct - 18:37:32 10° N 18:40:46 21° NE 18:43:59 10° E visible
21 Oct - 20:18:56 10° NW 20:22:57 42° WSW 20:27:00 10° S visible
22 Oct - 09:09:38 10° SE 09:11:59 13° ESE 09:14:16 10° ENE daylight
22 Oct - 10:48:25 10° SW 10:53:31 76° WNW 10:58:13 10° NNE daylight
22 Oct - 12:34:13 10° WNW 12:36:14 12° NW 12:38:13 10° NNW daylight
22 Oct - 17:49:07 10° NNE 17:50:29 11° NE 17:51:50 10° ENE daylight
22 Oct - 19:28:56 10° NNW 19:33:12 82° ENE 19:37:30 10° SSE visible
23 Oct - 09:58:45 10° SSW 10:03:43 53° ESE 10:08:19 10° NE daylight
23 Oct - 11:42:09 10° W 11:45:58 22° NW 11:49:35 10° N daylight
23 Oct - 18:39:19 10° NNW 18:43:17 37° NE 18:47:16 10° ESE visible
23 Oct - 20:21:51 10° WNW 20:25:01 21° WSW 20:28:14 10° SSW visible
24 Oct - 09:09:53 10° SSE 09:14:03 25° ESE 09:17:58 10° NE daylight
24 Oct - 10:51:11 10° SW 10:55:54 40° NW 11:00:18 10° NNE daylight
24 Oct - 17:50:05 10° N 17:53:11 19° NE 17:56:17 10° E daylight
24 Oct - 19:31:20 10° NW 19:35:25 46° WSW 19:39:32 10° S visible
25 Oct - 08:22:38 10° SE 08:24:30 12° ESE 08:26:20 10° E daylight
25 Oct - 10:00:54 10° SSW 10:05:59 81° WNW 10:10:40 10° NNE daylight
25 Oct - 11:46:24 10° WNW 11:48:39 13° NW 11:50:50 10° NNW daylight
25 Oct - 17:01:59 10° NNE 17:02:53 11° NE 17:03:45 10° NE daylight
25 Oct - 18:41:24 10° NNW 18:45:39 76° ENE 18:49:56 10° SE visible
26 Oct - 09:11:19 10° S 09:16:12 48° ESE 09:20:44 10° NE daylight
26 Oct - 10:54:30 10° WSW 10:58:24 23° NW 11:02:06 10° N daylight
26 Oct - 17:51:49 10° NNW 17:55:43 34° NE 17:59:39 10° ESE daylight
26 Oct - 19:34:11 10° WNW 19:37:30 22° WSW 19:40:52 10° SSW visible
27 Oct - 08:22:33 10° SSE 08:26:32 23° ESE 08:30:17 10° ENE daylight
27 Oct - 10:03:35 10° SW 10:08:21 43° NW 10:12:46 10° NNE daylight
27 Oct - 17:02:37 10° N 17:05:36 18° NE 17:08:34 10° E daylight
27 Oct - 18:43:45 10° NW 18:47:53 51° WSW 18:52:04 10° SSE visible
28 Oct - 07:35:48 10° ESE 07:37:01 11° ESE 07:38:12 10° E daylight
28 Oct - 09:13:23 10° SSW 09:18:26 87° WNW 09:23:07 10° NNE daylight
28 Oct - 10:58:37 10° WNW 11:01:04 14° NW 11:03:26 10° N daylight
28 Oct - 17:53:51 10° NNW 17:58:05 69° ENE 18:02:23 10° SE daylight
28 Oct - 19:38:29 10° W 19:39:29 11° WSW 19:40:29 10° WSW visible
29 Oct - 08:23:52 10° S 08:28:40 45° ESE 08:33:07 10° NE daylight
29 Oct - 10:06:51 10° WSW 10:10:50 24° NW 10:14:36 10° N daylight
29 Oct - 17:04:19 10° NNW 17:08:08 32° NE 17:12:00 10° ESE daylight
29 Oct - 18:46:31 10° NW 18:49:59 24° WSW 18:53:30 10° SSW visible
30 Oct - 07:35:14 10° SSE 07:39:01 22° ESE 07:42:36 10° ENE daylight
30 Oct - 09:16:01 10° SW 09:20:47 46° NW 09:25:14 10° NNE daylight
30 Oct - 16:15:11 10° N 16:18:00 17° NE 16:20:49 10° E daylight
30 Oct - 17:56:10 10° NW 18:00:20 56° WSW 18:04:34 10° SSE daylight
